Location: Kellogg
(38.0159°N, 90.0546°W)
Time: 23:09:11
(UTC+00:00)

Vanguard 1 - Pass Details

Date: 18 September 2024
Orbit: 648 x 3825 km, 34.3° (Epoch: 12 October)

Event Time Altitude Azimuth Distance (km) Brightness Sun altitude
Rises 13:41:30 0° 195° (SSW) 7,907 14.7 21.8°
Reaches altitude 10° 13:49:50 10° 181° (S) 6,619 14.6 23.4°
Maximum altitude 14:01:57 19° 145° (SE) 5,112 14.8 25.7°
Drops below altitude 10° 14:11:14 10° 107° (ESE) 4,994 15.4 27.4°
Sets 14:16:00 0° 90° (E) 5,471 14.9 28.2°
